User: anonymous   Login
Location: Unspecified
(0.0000°N, 0.0000°E)
Time: 17:38:03
(UTC+00:00)
Language:

IBEX - Orbit

View from above orbital plane
View from above orbital plane
View from above satellite
View from above satellite

Ground track
Ground track

The orbit data is extracted from the following two-line orbital elements,

1 33401U 08051A   16149.87394609 -.00001136  00000-0  00000+0 0  9993
2 33401  39.7839  27.0665 6368087 156.3197   1.6129  0.11916125  3219
Epoch (UTC): 28 May 2016 20:58:28
Eccentricity: 0.6368087
inclination: 39.7839°
perigee height: 56976 km
apogee height: 279143 km
right ascension of ascending node: 27.0665°
argument of perigee: 156.3197°
revolutions per day: 0.11916125
mean anomaly at epoch: 1.6129°
orbit number at epoch: 321

The dashed part of the orbit path shows where the satellite is in the earth's shadow,  

DLR